COSMOS 2506 DEB, 47212

Orbit data source: Space-Track

COSMOS 2506 DEB, 47212 is space debris in SSO originally from a launch on Tue, 23 Jun 2015 UTC launched from the Plesetsk Missile And Space Complex (PKMTR). Debris objects in space refer to the collection of defunct objects orbiting the Earth. Examples of debris include non-operational satellites, rocket bodies, and fragments generated from explosions, collisions, or faulty payload assembly.

Loading next visibility...
Identifier
47212, 2015-029C
Orbit
SSO
Last TLE update
22 hours ago
Origin
Manufacturer
Unknown
Mission
Spacecraft
Bus & Motor
Unknown
Mass
Unknown
Launch date (UTC)
2015-06-23 (10 years ago)
Launch vehicle
Unknown
Launch site
Plesetsk Missile And Space Complex (PKMTR)
Object type
Payload
Rocket body
Debris
Shape & HBR
Unknown
Radar Cross Section
Small (<0.1 m²)

Expand to show TLE details & history

TLE from 22 hours ago
0 COSMOS 2506 DEB
1 47212U 15029C   25132.01308544  .00004218  00000-0  73534-3 0  9991
2 47212  98.1559 200.5757 0005971 339.0497  21.0463 14.68529068238679
Epoch: 2025-05-12T00:18Z
Definitive object data (Epoch: 2025-05-12T00:18:50.581Z)
Latitude
0.00001°
Longitude
-34.16733°
Altitude
664.84 km
Speed
7.527 km/s
True Right ascension
13h 22m 18s
True Declination
0° 00' 00"
Sunlit
Object was in full shadow at TLE epoch
Visualization TLE readout
Latitude
39.63015°
Longitude
153.52171°
Altitude
675.426 km
Speed
7.521 km/s
Apparent Right ascension
22h 31m 15s
Apparent Declination
3° 52' 42"
Sunlit
Object is in daylight
Visualization observer readout
Local Sidereal Time
06:35:43
Azimuth
294.134° NW
Elevation
-20.611°
Doppler factor
1
Orbital elements
Apogee altitude
667.04 km
Perigee altitude
658.631 km
Semi-major axis
7,040.973 km
Eccentricity
0.0005971
Inclination
98.1559°
RAAN
200.5757°
Arg. of periapsis
339.0497°
True anomaly
21.07089°
Mean anomaly
21.0463°
Eccentric anomaly
21.05859°
Mean motion
3.67362 °/min
BSTAR
0.00073534
Orbital period
98 mins
Loading maneuver chart data...
Loading SW <> Apogee altitude chart data...
Loading historical data...
Loading historical data...
Loading historical data...
Loading historical data...
Loading historical data...
Loading historical data...
Loading historical data...
Other satellites on launch #29 in the year 2015 (2015-06-23 UTC)

COSMOS 2506 DEB Visibility forecast

Observer location: undefined°, undefined°

Span
Click to sort rows by Start time (UTC) header in descending order
Start Az.
Max El. time (UTC)
Max El. Az.
Max El.
End time (UTC)
End Az.
7 mins2025-05-13 04:14:27.886Z149.648° SSE2025-05-13 04:18:27.886Z46.165° ENE39.484°2025-05-13 04:21:27.886Z358.179° N
7 mins2025-05-13 17:46:27.886Z358.472° N2025-05-13 17:49:27.886Z287.731° WNW39.623°2025-05-13 17:53:27.886Z210.671° SW
|